Location: Hardenberg
(52.5670°N, 6.6170°E)
Time: 07:33:41
(UTC+02:00)

ISS - Pass Details

Date: 19 May 2021
Orbit: 417 x 422 km, 51.6° (Epoch: 12 June)

Event Time Altitude Azimuth Distance (km) Brightness Sun altitude
Rises 22:04:49 0° 238° (WSW) 2,358 0.3 -4.9°
Reaches altitude 10° 22:06:57 10° 232° (SW) 1,497 -0.8 -5.2°
Maximum altitude 22:10:10 44° 159° (SSE) 590 -3.4 -5.5°
Drops below altitude 10° 22:13:25 10° 86° (E) 1,505 -1.3 -5.9°
Sets 22:15:34 0° 80° (E) 2,372 -0.3 -6.1°
